Leonardtown, MD

11:43 PM EDT on April 30, 2017 (GMT -0400)
Leonardtown

Weather History for K2W6 - October, 2012

Change the Weather History Date:

Friday, October 5, 2012

  Actual Average (KNHK) Record (KNHK)
Temperature  
Mean Temperature 66 °F -  
Max Temperature 78 °F 72 °F 86 °F (2002)
Min Temperature 53 °F 54 °F 37 °F (2014)
Growing Degree Days 16 (Base 50)    
Moisture  
Dew Point 55 °F    
Average Humidity 67    
Maximum Humidity 94    
Minimum Humidity 36    
Precipitation  
Precipitation 0.00 in - - ()
Sea Level Pressure  
Sea Level Pressure 30.10 in    
Wind  
Wind Speed 3 mph (West)    
Max Wind Speed 8 mph    
Max Gust Speed -    
Visibility 10 miles    
Events      
Averages and records for this station are not official NWS values.
T = Trace of Precipitation, MM = Missing Value Source: NWS Daily Summary

Daily Weather History Graph

Daily Weather History Graph

Search for Another Location

Airport or City:

Trip Planner

Search our weather history database for the weather conditions in past years. The results will help you decide how hot, cold, wet, or windy it might be!

Date:

Astronomy

Oct. 05, 2012 Rise Set
Actual Time 7:06 AM EDT 6:42 PM EDT
Civil Twilight 6:39 AM EDT 7:08 PM EDT
Nautical Twilight 6:09 AM EDT 7:39 PM EDT
Astronomical Twilight 5:38 AM EDT 8:09 PM EDT
Moon 10:07 PM EDT (10/5) 12:08 PM EDT (10/5)
Length of Visible Light 12h 29m
Length of Day
11h 36m
Waning Gibbous, 74% of the Moon is Illuminated
Oct 5
Waning Gibbous
Oct 8
Last Quarter
Oct 15
New
Oct 21
First Quarter
Oct 29
Full

Hourly Weather History & Observations

Time (EDT) Temp. Dew Point Humidity Pressure Visibility Wind Dir Wind Speed Gust Speed Precip Events Conditions
12:01 AM 62.6 °F 59.0 °F 88% 30.14 in - West 3.5 mph - N/A   Unknown
12:22 AM 62.6 °F 59.0 °F 88% 30.14 in - Calm Calm - N/A   Unknown
12:43 AM 60.8 °F 59.0 °F 94% 30.15 in - Calm Calm - N/A   Unknown
1:05 AM 62.6 °F 57.2 °F 82% 30.14 in - WNW 3.5 mph - N/A   Clear
1:26 AM 60.8 °F 57.2 °F 88% 30.14 in - WNW 3.5 mph - N/A   Unknown
1:47 AM 60.8 °F 55.4 °F 82% 30.14 in - WSW 3.5 mph - N/A   Unknown
2:09 AM 59.0 °F 55.4 °F 88% 30.14 in - WSW 3.5 mph - N/A   Unknown
2:51 AM 59.0 °F 55.4 °F 88% 30.14 in - Calm Calm - N/A   Unknown
3:13 AM 57.2 °F 53.6 °F 88% 30.14 in - Calm Calm - N/A   Unknown
3:55 AM 55.4 °F 53.6 °F 94% 30.13 in - Calm Calm - N/A   Unknown
4:17 AM 55.4 °F 53.6 °F 94% 30.14 in - Calm Calm - N/A   Unknown
4:38 AM 55.4 °F 53.6 °F 94% 30.14 in - Calm Calm - N/A   Unknown
4:59 AM 55.4 °F 53.6 °F 94% 30.14 in - Calm Calm - N/A   Unknown
5:21 AM 53.6 °F 51.8 °F 94% 30.15 in - Calm Calm - N/A   Unknown
5:42 AM 55.4 °F 53.6 °F 94% 30.15 in - Calm Calm - N/A   Unknown
6:03 AM 53.6 °F 51.8 °F 94% 30.15 in - Calm Calm - N/A   Unknown
6:25 AM 55.4 °F 51.8 °F 88% 30.15 in - West 3.5 mph - N/A   Unknown
6:46 AM 53.6 °F 51.8 °F 94% 30.15 in - WNW 3.5 mph - N/A   Unknown
7:07 AM 55.4 °F 51.8 °F 88% 30.14 in - West 3.5 mph - N/A   Unknown
7:50 AM 59.0 °F 53.6 °F 82% 30.14 in - West 3.5 mph - N/A   Clear
8:11 AM 60.8 °F 53.6 °F 77% 30.14 in - West 3.5 mph - N/A   Clear
8:32 AM 62.6 °F 55.4 °F 77% 30.14 in - West 3.5 mph - N/A   Clear
8:53 AM 64.4 °F 55.4 °F 73% 30.14 in - West 3.5 mph - N/A   Clear
9:15 AM 68.0 °F 55.4 °F 64% 30.14 in - West 4.6 mph - N/A   Clear
9:36 AM 68.0 °F 57.2 °F 68% 30.15 in - West 4.6 mph - N/A   Clear
9:57 AM 69.8 °F 55.4 °F 60% 30.15 in - WNW 5.8 mph - N/A   Clear
10:18 AM 71.6 °F 55.4 °F 57% 30.15 in - West 4.6 mph - N/A   Clear
10:40 AM 73.4 °F 55.4 °F 53% 30.15 in - WNW 5.8 mph - N/A   Clear
11:01 AM 73.4 °F 55.4 °F 53% 30.15 in 10.0 mi West 6.9 mph - N/A   Clear
11:22 AM 75.2 °F 55.4 °F 50% 30.14 in 10.0 mi WNW 8.1 mph - N/A   Clear
11:43 AM 75.2 °F 53.6 °F 47% 30.14 in 10.0 mi NW 5.8 mph - N/A   Clear
12:05 PM 77.0 °F 55.4 °F 47% 30.13 in 10.0 mi WNW 5.8 mph - N/A   Clear
12:47 PM 77.0 °F 53.6 °F 44% 30.11 in 10.0 mi WNW 4.6 mph - N/A   Clear
1:08 PM 77.0 °F 51.8 °F 41% 30.10 in 10.0 mi SW 3.5 mph - N/A   Scattered Clouds
1:30 PM 77.0 °F 51.8 °F 41% 30.09 in 10.0 mi Calm Calm - N/A   Scattered Clouds
1:51 PM 78.8 °F 53.6 °F 42% 30.07 in 10.0 mi NW 3.5 mph - N/A   Scattered Clouds
2:12 PM 78.8 °F 50.0 °F 36% 30.06 in 10.0 mi SW 5.8 mph - N/A   Mostly Cloudy
2:33 PM 78.8 °F 51.8 °F 39% 30.06 in 10.0 mi SW 6.9 mph - N/A   Scattered Clouds
2:34 PM 78.8 °F 51.8 °F 39% 30.06 in 10.0 mi SW 4.6 mph - N/A   Scattered Clouds
2:55 PM 78.8 °F 51.8 °F 39% 30.05 in 10.0 mi SW 6.9 mph - N/A   Scattered Clouds
3:16 PM 78.8 °F 53.6 °F 42% 30.05 in 10.0 mi SW 6.9 mph - N/A   Clear
3:37 PM 78.8 °F 50.0 °F 36% 30.04 in 10.0 mi West 8.1 mph - N/A   Scattered Clouds
3:59 PM 78.8 °F 50.0 °F 36% 30.04 in 10.0 mi SW 5.8 mph - N/A   Clear
4:20 PM 78.8 °F 50.0 °F 36% 30.04 in 10.0 mi SW 6.9 mph - N/A   Clear
4:41 PM 78.8 °F 51.8 °F 39% 30.04 in 10.0 mi WSW 4.6 mph - N/A   Clear
5:02 PM 77.0 °F 51.8 °F 41% 30.04 in 10.0 mi WSW 3.5 mph - N/A   Clear
5:23 PM 77.0 °F 53.6 °F 44% 30.04 in 10.0 mi Calm Calm - N/A   Clear
5:45 PM 77.0 °F 53.6 °F 44% 30.03 in - Calm Calm - N/A   Clear
6:06 PM 73.4 °F 59.0 °F 61% 30.03 in 10.0 mi Calm Calm - N/A   Clear
6:27 PM 69.8 °F 59.0 °F 68% 30.03 in 10.0 mi Calm Calm - N/A   Clear
6:48 PM 68.0 °F 59.0 °F 73% 30.03 in 10.0 mi Calm Calm - N/A   Clear
7:10 PM 68.0 °F 59.0 °F 73% 30.04 in 10.0 mi SSE 3.5 mph - N/A   Clear
7:52 PM 68.0 °F 59.0 °F 73% 30.03 in 10.0 mi SSE 3.5 mph - N/A   Clear
8:14 PM 68.0 °F 59.0 °F 73% 30.03 in 10.0 mi Calm Calm - N/A   Clear
8:35 PM 68.0 °F 57.2 °F 68% 30.03 in 10.0 mi Calm Calm - N/A   Clear
8:56 PM 66.2 °F 57.2 °F 73% 30.03 in 10.0 mi Calm Calm - N/A   Clear
9:17 PM 66.2 °F 57.2 °F 73% 30.03 in 10.0 mi Calm Calm - N/A   Clear
9:39 PM 66.2 °F 57.2 °F 73% 30.03 in 10.0 mi Calm Calm - N/A   Clear
10:00 PM 64.4 °F 57.2 °F 77% 30.02 in 10.0 mi Calm Calm - N/A   Clear
11:04 PM 64.4 °F 55.4 °F 73% 30.01 in 10.0 mi SSE 3.5 mph - N/A   Clear
11:25 PM 64.4 °F 55.4 °F 73% 30.00 in 10.0 mi Calm Calm - N/A   Clear